Previsão horária em Cegielnia

Hoje, 25 Julho, Domingo

Tempo Temperatura Precipitação Vento Pressão Humidade
00:00 +15°C° 0 mm 4 m/s 756 mmHg 84%
01:00 +15°C° 0 mm 4 m/s 756 mmHg 86%
02:00 +15°C° 0 mm 4 m/s 756 mmHg 85%
03:00 +17°C° 0 mm 4 m/s 756 mmHg 84%
04:00 +17°C° 0 mm 4 m/s 756 mmHg 83%
05:00 +19°C° 0 mm 4 m/s 756 mmHg 75%
06:00 +20°C° 0 mm 4 m/s 755 mmHg 68%
07:00 +22°C° 0 mm 5 m/s 755 mmHg 61%
08:00 +25°C° 0 mm 5 m/s 755 mmHg 55%
09:00 +26°C° 0 mm 5 m/s 755 mmHg 48%
10:00 +28°C° 0 mm 6 m/s 755 mmHg 42%
11:00 +28°C° 0 mm 6 m/s 755 mmHg 41%
12:00 +29°C° 0 mm 6 m/s 755 mmHg 41%
13:00 +30°C° 0 mm 6 m/s 755 mmHg 40%
14:00 +29°C° 0 mm 6 m/s 755 mmHg 44%
15:00 +28°C° 0 mm 6 m/s 754 mmHg 48%
16:00 +27°C° 0 mm 6 m/s 754 mmHg 53%
17:00 +26°C° 0 mm 6 m/s 754 mmHg 54%
18:00 +26°C° 0 mm 6 m/s 754 mmHg 55%
19:00 +26°C° 0 mm 6 m/s 754 mmHg 57%
20:00 +23°C° 0.1 mm 5 m/s 755 mmHg 63%
21:00 +22°C° 0.1 mm 4 m/s 755 mmHg 70%
22:00 +21°C° 0.1 mm 3 m/s 755 mmHg 77%
23:00 +21°C° 0 mm 3 m/s 755 mmHg 77%

Amanhã, 26 Julho, Segunda-feira

Tempo Temperatura Precipitação Vento Pressão Humidade
00:00 +20°C° 0 mm 2 m/s 755 mmHg 78%
01:00 +20°C° 0 mm 2 m/s 755 mmHg 78%
02:00 +20°C° 0 mm 2 m/s 754 mmHg 79%
03:00 +19°C° 0 mm 3 m/s 754 mmHg 80%
04:00 +19°C° 0 mm 3 m/s 754 mmHg 81%
05:00 +20°C° 0.1 mm 4 m/s 754 mmHg 79%
06:00 +21°C° 0.1 mm 4 m/s 754 mmHg 76%
07:00 +22°C° 0.1 mm 4 m/s 754 mmHg 73%
08:00 +23°C° 0 mm 4 m/s 754 mmHg 67%
09:00 +25°C° 0 mm 5 m/s 754 mmHg 61%
10:00 +26°C° 0 mm 5 m/s 754 mmHg 55%
11:00 +28°C° 0 mm 5 m/s 754 mmHg 49%
12:00 +30°C° 0 mm 5 m/s 754 mmHg 44%
13:00 +32°C° 0 mm 6 m/s 754 mmHg 38%
14:00 +32°C° 0.2 mm 5 m/s 754 mmHg 41%
15:00 +30°C° 0.2 mm 5 m/s 754 mmHg 44%
16:00 +30°C° 0.2 mm 4 m/s 753 mmHg 47%
17:00 +28°C° 0.6 mm 4 m/s 753 mmHg 58%
18:00 +26°C° 0.6 mm 3 m/s 753 mmHg 70%
19:00 +22°C° 0.6 mm 3 m/s 753 mmHg 82%
20:00 +21°C° 0.2 mm 3 m/s 753 mmHg 85%
21:00 +21°C° 0.2 mm 3 m/s 753 mmHg 88%
22:00 +20°C° 0.2 mm 3 m/s 753 mmHg 91%
23:00 +19°C° 0.5 mm 3 m/s 753 mmHg 93%

Depois de amanhã, 27 Julho, Terça-feira

Tempo Temperatura Precipitação Vento Pressão Humidade
00:00 +19°C° 0.5 mm 3 m/s 753 mmHg 94%
01:00 +19°C° 0.5 mm 3 m/s 753 mmHg 95%
02:00 +19°C° 0.2 mm 3 m/s 753 mmHg 95%
03:00 +19°C° 0.2 mm 2 m/s 753 mmHg 94%
04:00 +20°C° 0.2 mm 1 m/s 752 mmHg 93%
05:00 +21°C° 0.2 mm 1 m/s 753 mmHg 91%
06:00 +22°C° 0.2 mm 1 m/s 753 mmHg 89%
07:00 +22°C° 0.2 mm 1 m/s 753 mmHg 87%
08:00 +24°C° 0.1 mm 1 m/s 753 mmHg 78%
09:00 +26°C° 0.1 mm 2 m/s 753 mmHg 70%
10:00 +27°C° 0.1 mm 2 m/s 753 mmHg 62%
11:00 +28°C° 0 mm 3 m/s 753 mmHg 59%
12:00 +28°C° 0 mm 3 m/s 753 mmHg 55%
13:00 +29°C° 0 mm 4 m/s 753 mmHg 52%
14:00 +29°C° 0 mm 4 m/s 753 mmHg 53%
15:00 +28°C° 0 mm 4 m/s 753 mmHg 55%
16:00 +28°C° 0 mm 4 m/s 753 mmHg 56%
17:00 +27°C° 0 mm 3 m/s 753 mmHg 61%
18:00 +25°C° 0 mm 3 m/s 753 mmHg 67%
19:00 +24°C° 0 mm 3 m/s 753 mmHg 73%
20:00 +23°C° 0 mm 2 m/s 753 mmHg 77%
21:00 +21°C° 0 mm 2 m/s 753 mmHg 82%
22:00 +21°C° 0 mm 1 m/s 753 mmHg 86%
23:00 +20°C° 0 mm 1 m/s 753 mmHg 87%

28 Julho, Quarta-feira

Tempo Temperatura Precipitação Vento Pressão Humidade
00:00 +20°C° 0 mm 1 m/s 753 mmHg 87%
01:00 +20°C° 0 mm 1 m/s 753 mmHg 87%
02:00 +20°C° 0 mm 1 m/s 753 mmHg 86%
03:00 +19°C° 0 mm 2 m/s 752 mmHg 85%
04:00 +18°C° 0 mm 2 m/s 752 mmHg 84%
05:00 +20°C° 0 mm 2 m/s 752 mmHg 79%
06:00 +23°C° 0 mm 2 m/s 752 mmHg 74%
07:00 +24°C° 0 mm 2 m/s 752 mmHg 69%
08:00 +25°C° 0.1 mm 2 m/s 752 mmHg 66%
09:00 +25°C° 0.1 mm 2 m/s 752 mmHg 63%
10:00 +26°C° 0.1 mm 2 m/s 752 mmHg 60%
11:00 +27°C° 0.3 mm 3 m/s 752 mmHg 58%
12:00 +27°C° 0.3 mm 4 m/s 752 mmHg 56%
13:00 +27°C° 0.3 mm 5 m/s 752 mmHg 54%
14:00 +27°C° 0.1 mm 6 m/s 752 mmHg 55%
15:00 +26°C° 0.1 mm 6 m/s 752 mmHg 57%
16:00 +24°C° 0.1 mm 6 m/s 753 mmHg 58%
17:00 +23°C° 0 mm 6 m/s 753 mmHg 61%
18:00 +23°C° 0 mm 5 m/s 753 mmHg 64%
19:00 +22°C° 0 mm 4 m/s 753 mmHg 68%
20:00 +20°C° 0 mm 4 m/s 753 mmHg 74%
21:00 +19°C° 0 mm 4 m/s 753 mmHg 80%
22:00 +18°C° 0 mm 3 m/s 753 mmHg 87%
23:00 +17°C° 0.1 mm 3 m/s 753 mmHg 87%

29 Julho, Quinta-feira

Tempo Temperatura Precipitação Vento Pressão Humidade
00:00 +17°C° 0.1 mm 4 m/s 753 mmHg 88%
01:00 +17°C° 0.1 mm 4 m/s 753 mmHg 89%
02:00 +17°C° 0.1 mm 4 m/s 753 mmHg 90%
03:00 +15°C° 0.1 mm 4 m/s 753 mmHg 92%
04:00 +15°C° 0.1 mm 4 m/s 753 mmHg 94%
05:00 +17°C° 0.1 mm 5 m/s 753 mmHg 86%
06:00 +19°C° 0.1 mm 5 m/s 753 mmHg 78%
07:00 +21°C° 0.1 mm 6 m/s 753 mmHg 70%
08:00 +22°C° 0.1 mm 7 m/s 754 mmHg 63%
09:00 +23°C° 0.1 mm 7 m/s 754 mmHg 56%
10:00 +24°C° 0.1 mm 7 m/s 754 mmHg 49%
11:00 +24°C° 0 mm 7 m/s 754 mmHg 46%
12:00 +26°C° 0 mm 7 m/s 754 mmHg 44%
13:00 +26°C° 0 mm 7 m/s 754 mmHg 41%
14:00 +26°C° 0 mm 6 m/s 754 mmHg 41%
15:00 +24°C° 0 mm 6 m/s 754 mmHg 42%
16:00 +25°C° 0 mm 5 m/s 754 mmHg 42%
17:00 +23°C° 0 mm 4 m/s 753 mmHg 48%
18:00 +22°C° 0 mm 3 m/s 753 mmHg 54%
19:00 +20°C° 0 mm 2 m/s 753 mmHg 59%
20:00 +19°C° 0 mm 2 m/s 753 mmHg 62%
21:00 +18°C° 0 mm 2 m/s 753 mmHg 65%
22:00 +17°C° 0 mm 3 m/s 753 mmHg 68%
23:00 +17°C° 0 mm 3 m/s 753 mmHg 72%

30 Julho, Sexta-feira

Tempo Temperatura Precipitação Vento Pressão Humidade
00:00 +16°C° 0 mm 3 m/s 752 mmHg 76%
01:00 +16°C° 0 mm 3 m/s 752 mmHg 80%
02:00 +16°C° 0 mm 3 m/s 752 mmHg 81%
03:00 +16°C° 0 mm 3 m/s 752 mmHg 81%
04:00 +16°C° 0 mm 3 m/s 752 mmHg 81%
05:00 +18°C° 0 mm 3 m/s 751 mmHg 74%
06:00 +20°C° 0 mm 3 m/s 751 mmHg 67%
07:00 +22°C° 0 mm 4 m/s 751 mmHg 59%
08:00 +23°C° 0 mm 4 m/s 751 mmHg 58%
09:00 +25°C° 0 mm 4 m/s 750 mmHg 56%
10:00 +26°C° 0 mm 5 m/s 750 mmHg 55%
11:00 +27°C° 0.1 mm 6 m/s 750 mmHg 54%
12:00 +27°C° 0.1 mm 7 m/s 751 mmHg 53%
13:00 +27°C° 0.1 mm 9 m/s 751 mmHg 53%
14:00 +26°C° 0 mm 8 m/s 751 mmHg 54%
15:00 +24°C° 0 mm 8 m/s 751 mmHg 55%
16:00 +22°C° 0 mm 7 m/s 751 mmHg 56%
17:00 +22°C° 0 mm 7 m/s 751 mmHg 58%
18:00 +21°C° 0 mm 6 m/s 751 mmHg 60%
19:00 +20°C° 0 mm 6 m/s 751 mmHg 62%
20:00 +19°C° 0 mm 5 m/s 752 mmHg 69%
21:00 +16°C° 0 mm 5 m/s 752 mmHg 77%
22:00 +15°C° 0 mm 4 m/s 752 mmHg 84%
23:00 +15°C° 0 mm 4 m/s 752 mmHg 85%
Mostrar mais

Necessitamos do seu Consentimento

A Meteoprog e os seus Fornecedores de Serviços podem armazenar e aceder a dados pessoais como cookies, identificadores do dispositivo ou outras tecnologias semelhantes existentes no seu dispositivo e processar estes dados para personalizar conteúdos e anúncios, assim como funcionalidades nas redes sociais e análise de tráfego.

  • Armazenar e/ou aceder a informações no seu dispositivo

    Os cookies, identificadores do dispositivo ou outras informações podem ser armazenados ou acedidos no seu dispositivo, para os fins acima indicados.

  • Anúncios e conteúdos personalizados, medição de anúncios e conteúdos, dados sobre o público-alvo e desenvolvimento de produtos

    Os anúncios e os conteúdos podem ser personalizados com base num perfil. Podem ser adicionados dados adicionais para uma maior personalização dos anúncios e dos conteúdos. A eficácia dos anúncios e dos conteúdos pode ser medida. Podem ser obtidas informações sobre o público que visualizou os anúncios e os conteúdos. Estes dados podem ser usados para desenvolver ou melhorar sistemas, softwares ou a experiência do utilizador.

Ao clicar em "Eu concordo”, permitirá o uso de cookies, identificadores do dispositivo e web beacons mencionados ou outras tecnologias semelhantes. As configurações do navegador do seu dispositivo podem ser alteradas.

Para certos fins, podem ser invocados interesses legítimos ao invés de consentimento. Pode ler mais informação sobre este assunto na nossa Política de Privacidade e Cookies.